Location: Seattle
(47.6064°N, 122.3308°W)
Time: 08:25:31
(UTC-07:00)

RS-15 - Pass Details

Date: 06 April 2023
Orbit: 1885 x 2159 km, 64.8° (Epoch: 01 June)

Event Time Altitude Azimuth Distance (km) Brightness Sun altitude
Rises 01:44:11 0° 322° (NW) 5,617 10.9 -35.5°
Reaches altitude 10° 01:47:58 10° 315° (NW) 4,580 10.3 -35.4°
Enters shadow 01:57:56 38° 258° (WSW) 2,795 8.5 -35.0°
